Weather History for Harrisburg, PA

Change the Weather History Date:

Thursday, May 9, 2013

  Actual Average Record
Temperature  
Mean Temperature 59 °F -  
Max Temperature 71 °F 69 °F 93 °F (1963)
Min Temperature 48 °F 49 °F 32 °F (1947)
Degree Days  
Heating Degree Days 6    
Growing Degree Days 9 (Base 50)    
Moisture  
Dew Point 53 °F    
Average Humidity 90    
Maximum Humidity 100    
Minimum Humidity 63    
Precipitation  
Precipitation 0.08 in - - ()
Sea Level Pressure  
Sea Level Pressure 29.95 in    
Wind  
Wind Speed 1 mph (West)    
Max Wind Speed 7 mph    
Max Gust Speed -    
Visibility 5 miles    
Events Fog , Rain    
Averages and records for this station are not official NWS values.
T = Trace of Precipitation, MM = Missing Value Source: NWS Daily Summary

Daily Weather History Graph

Daily Weather History Graph

Search for Another Location

Airport:

Trip Planner

Search our weather history database for the weather conditions in past years. The results will help you decide how hot, cold, wet, or windy it might be!

Date:

Astronomy

May. 09, 2013 Rise Set
Actual Time 5:57 AM EDT 8:10 PM EDT
Civil Twilight 5:27 AM EDT 8:41 PM EDT
Nautical Twilight 4:50 AM EDT 9:18 PM EDT
Astronomical Twilight 4:09 AM EDT 9:59 PM EDT
Moon 5:40 AM EDT (5/9) 8:04 PM EDT (5/9)
Length of Visible Light 15h 13m
Length of Day
14h 13m
Waning Crescent, 0% of the Moon is Illuminated
May 9
Waning Crescent
May 9
New
May 18
First Quarter
May 25
Full
May 31
Last Quarter

Hourly Weather History & Observations

Time (EDT) Temp. Dew Point Humidity Pressure Visibility Wind Dir Wind Speed Gust Speed Precip Events Conditions
12:43 AM 53.6 °F 51.8 °F 94% 29.97 in 1.8 mi Calm Calm - 0.01 in   Partly Cloudy
12:56 AM 52.0 °F 51.1 °F 97% 29.96 in 3.0 mi Calm Calm - 0.01 in   Clear
1:39 AM 51.8 °F 50.0 °F 94% 29.95 in 2.0 mi SW 3.5 mph - N/A   Partly Cloudy
1:50 AM 50.0 °F 50.0 °F 100% 29.95 in 1.2 mi Calm Calm - N/A   Partly Cloudy
2:03 AM 50.0 °F 50.0 °F 100% 29.94 in 1.8 mi Calm Calm - N/A   Partly Cloudy
2:08 AM 50.0 °F 50.0 °F 100% 29.94 in 0.8 mi Calm Calm - N/A   Clear
2:27 AM 50.0 °F 48.2 °F 94% 29.94 in 1.5 mi Calm Calm - N/A   Clear
2:32 AM 50.0 °F 48.2 °F 94% 29.94 in 3.0 mi Calm Calm - N/A   Clear
2:48 AM 50.0 °F 50.0 °F 100% 29.93 in 5.0 mi Calm Calm - N/A   Mostly Cloudy
2:56 AM 50.0 °F 50.0 °F 100% 29.93 in 5.0 mi Calm Calm - N/A   Mostly Cloudy
3:14 AM 51.8 °F 50.0 °F 94% 29.93 in 4.0 mi Calm Calm - N/A   Scattered Clouds
3:19 AM 50.0 °F 50.0 °F 100% 29.93 in 1.8 mi Calm Calm - N/A   Partly Cloudy
3:36 AM 48.2 °F 48.2 °F 100% 29.93 in 3.0 mi Calm Calm - N/A   Clear
3:44 AM 48.2 °F 48.2 °F 100% 29.93 in 2.5 mi SW 3.5 mph - N/A   Clear
3:56 AM 50.0 °F 48.9 °F 96% 29.94 in 3.0 mi WSW 4.6 mph - N/A   Mostly Cloudy
4:56 AM 52.0 °F 52.0 °F 100% 29.94 in 5.0 mi Calm Calm - N/A   Overcast
5:24 AM 53.6 °F 51.8 °F 94% 29.93 in 8.0 mi Calm Calm - N/A   Scattered Clouds
5:39 AM 51.8 °F 50.0 °F 94% 29.93 in 5.0 mi Calm Calm - N/A   Partly Cloudy
6:04 AM 51.8 °F 51.8 °F 100% 29.93 in 1.5 mi Calm Calm - N/A   Clear
6:06 AM 51.8 °F 51.8 °F 100% 29.93 in 0.8 mi Calm Calm - N/A   Clear
6:15 AM 51.8 °F 50.0 °F 94% 29.93 in 0.2 mi Calm Calm - N/A Fog Fog
6:24 AM 51.8 °F 51.8 °F 100% 29.93 in 1.5 mi Calm Calm - N/A   Mostly Cloudy
6:35 AM 53.6 °F 51.8 °F 94% 29.94 in 2.5 mi Calm Calm - N/A   Overcast
6:46 AM 53.6 °F 53.6 °F 100% 29.94 in 4.0 mi WSW 3.5 mph - N/A   Overcast
6:54 AM 53.6 °F 53.6 °F 100% 29.94 in 5.0 mi West 3.5 mph - N/A   Overcast
6:56 AM 54.0 °F 53.1 °F 97% 29.94 in 5.0 mi West 3.5 mph - N/A   Overcast
7:10 AM 53.6 °F 53.6 °F 100% 29.94 in 5.0 mi West 3.5 mph - N/A   Overcast
7:46 AM 53.6 °F 53.6 °F 100% 29.96 in 3.0 mi WSW 3.5 mph - 0.01 in Rain Rain
7:56 AM 55.0 °F 53.1 °F 93% 29.96 in 3.0 mi SW 3.5 mph - 0.02 in Rain Rain
8:03 AM 55.4 °F 53.6 °F 94% 29.96 in 3.0 mi WSW 3.5 mph - 0.01 in Rain Rain
8:10 AM 55.4 °F 53.6 °F 94% 29.96 in 3.0 mi SW 3.5 mph - 0.02 in Rain Light Rain
8:30 AM 55.4 °F 53.6 °F 94% 29.96 in 2.5 mi SSW 3.5 mph - 0.03 in Rain Light Rain
8:56 AM 55.0 °F 54.0 °F 96% 29.97 in 3.0 mi Calm Calm - 0.03 in   Overcast
9:41 AM 55.4 °F 53.6 °F 94% 29.97 in 2.5 mi West 3.5 mph - 0.01 in Rain Light Rain
9:48 AM 55.4 °F 53.6 °F 94% 29.97 in 4.0 mi Calm Calm - 0.01 in Rain Light Rain
9:56 AM 55.9 °F 55.0 °F 97% 29.98 in 3.0 mi Calm Calm - 0.01 in Rain Light Rain
10:56 AM 57.0 °F 54.0 °F 89% 29.98 in 4.0 mi Variable 3.5 mph - 0.01 in   Overcast
11:21 AM 59.0 °F 55.4 °F 88% 29.97 in 4.0 mi Calm Calm - N/A   Overcast
11:56 AM 60.1 °F 55.0 °F 83% 29.98 in 3.0 mi WNW 3.5 mph - N/A   Haze
12:56 PM 61.0 °F 55.9 °F 83% 29.97 in 4.0 mi Calm Calm - 0.00 in Rain Light Rain
1:17 PM 60.8 °F 57.2 °F 88% 29.97 in 4.0 mi Calm Calm - 0.00 in   Overcast
1:56 PM 63.0 °F 57.0 °F 81% 29.96 in 5.0 mi Calm Calm - 0.00 in   Haze
2:25 PM 64.4 °F 57.2 °F 77% 29.95 in 8.0 mi Variable 4.6 mph - N/A   Overcast
2:56 PM 66.0 °F 55.9 °F 70% 29.95 in 9.0 mi NNW 6.9 mph - N/A   Mostly Cloudy
3:08 PM 66.2 °F 57.2 °F 73% 29.94 in 10.0 mi NNW 3.5 mph - N/A   Mostly Cloudy
3:47 PM 69.8 °F 57.2 °F 64% 29.94 in 10.0 mi Calm Calm - N/A   Mostly Cloudy
3:56 PM 69.1 °F 57.9 °F 68% 29.94 in 10.0 mi Calm Calm - N/A   Mostly Cloudy
4:56 PM 70.0 °F 57.0 °F 63% 29.93 in 10.0 mi WNW 4.6 mph - N/A   Mostly Cloudy
5:56 PM 70.0 °F 57.0 °F 63% 29.93 in 10.0 mi West 5.8 mph - 0.00 in   Overcast
6:56 PM 68.0 °F 57.0 °F 68% 29.94 in 10.0 mi West 5.8 mph - N/A   Partly Cloudy
7:56 PM 66.0 °F 57.0 °F 73% 29.95 in 10.0 mi West 4.6 mph - 0.00 in   Mostly Cloudy
8:56 PM 64.0 °F 57.0 °F 78% 29.96 in 10.0 mi WSW 3.5 mph - N/A   Partly Cloudy
9:56 PM 61.0 °F 57.0 °F 87% 29.99 in 10.0 mi WSW 5.8 mph - N/A   Clear
10:56 PM 63.0 °F 57.0 °F 81% 29.98 in 10.0 mi NW 3.5 mph - N/A   Clear
11:56 PM 61.0 °F 57.0 °F 87% 29.98 in 10.0 mi Calm Calm - N/A   Clear